Weather in Cordoba

Spain     37°52′14″N   4°46′42″W
temp.,
°C
wind,
m/s
gust,
m/s
humid.,
%
clouds,
%
prec.,
mm/h
press.,
hPa
HPBL,
m
10 april, sat
sat1023:00+14s2275100 0.0 101430
02:00+13ssw51184100 0.0 1016434
05:00+12sw2685100 0.0 1014206
08:00+13ssw148668 0.1 1015167
11:00+16ssw357165 0.0 1015799
14:00+21wsw454820 0.3 10131878
17:00+21sw4646100 0.0 10111268
20:00+18wsw496023 0.4 1011466
11 april, sun
sun1123:00+12sw36870 0.4 1014105
02:00+11sw229639 0.4 101531
05:00+11sw259673 0.0 1014195
08:00+12s139296 0.1 1015153
11:00+14wsw3581100 0.1 1016537
14:00+19w356093 0.3 10161353
17:00+22wsw564422 0.2 10142166
20:00+19wsw365172 0.2 1015221
12 april, mon
mon1223:00+16wsw2363100 0.0 101864
02:00+12sw228883 0.0 101917
05:00+11ne1193100 0.0 101811
08:00+10ne2292100 0.0 101923
11:00+17ene4562100 0.0 1020531
14:00+21ene4444100 0.0 10201401
17:00+22nne2337100 0.0 10182094
20:00+19s2360100 0.0 101955
13 april, tue
tue1323:00+16se116493 0.0 102113
02:00+13ssw117473 0.0 102214
05:00+11se018769 0.0 102211
08:00+10ene1187100 0.0 102210
11:00+16ene234498 0.0 1023491
14:00+22sse1241100 0.0 10211238
17:00+23sw3241100 0.0 10191760
20:00+19ssw475288 0.0 1019250
14 april, wed
wed1423:00+13sw2366100 0.0 102055
02:00+12wsw1170100 0.0 102010
05:00+11ssw0073100 0.0 101910
08:00+12ne1173100 0.0 101813
11:00+16ene1259100 0.0 1018367
14:00+21ssw3343100 0.0 10161372
17:00+23ssw3338100 0.0 10131523
20:00+18ssw5851100 0.0 1013373